TimeEST,TemperatureF,Dew PointF,Humidity,Sea Level PressureIn,VisibilityMPH,Wind Direction,Wind SpeedMPH,Gust SpeedMPH,PrecipitationIn,Events,Conditions,WindDirDegrees,DateUTC
12:56 AM,50.0,48.0,93,30.02,4.0,SW,5.8,-,0.04,Rain,Light Rain,230,2012-12-09 05:56:00
1:24 AM,50.0,48.2,94,30.02,4.0,SW,5.8,-,0.00,Rain,Light Rain,230,2012-12-09 06:24:00
1:35 AM,50.0,48.2,94,30.03,4.0,SSW,4.6,-,0.00,Rain,Light Rain,210,2012-12-09 06:35:00
2:56 AM,48.9,46.9,93,30.06,3.0,SSW,3.5,-,N/A,,Overcast,210,2012-12-09 07:56:00
3:17 AM,48.2,46.4,93,30.06,2.5,Calm,Calm,-,N/A,,Overcast,0,2012-12-09 08:17:00
3:32 AM,48.2,46.4,93,30.07,1.5,Calm,Calm,-,N/A,,Overcast,0,2012-12-09 08:32:00
3:43 AM,48.2,46.4,93,30.08,1.0,Calm,Calm,-,N/A,,Overcast,0,2012-12-09 08:43:00
3:56 AM,48.0,46.9,96,30.08,0.8,Calm,Calm,-,N/A,,Overcast,0,2012-12-09 08:56:00
4:03 AM,48.2,46.4,93,30.08,1.5,Calm,Calm,-,N/A,,Overcast,0,2012-12-09 09:03:00
4:14 AM,48.2,46.4,93,30.09,1.2,Calm,Calm,-,N/A,,Overcast,0,2012-12-09 09:14:00
4:29 AM,48.2,46.4,93,30.09,2.0,NNW,4.6,-,N/A,,Overcast,340,2012-12-09 09:29:00
4:41 AM,48.2,46.4,93,30.10,4.0,North,5.8,-,N/A,,Overcast,350,2012-12-09 09:41:00
4:56 AM,48.9,46.0,90,30.12,6.0,North,5.8,-,N/A,,Overcast,350,2012-12-09 09:56:00
5:15 AM,48.2,46.4,93,30.12,6.0,North,3.5,-,N/A,,Scattered Clouds,360,2012-12-09 10:15:00
5:51 AM,44.6,44.6,100,30.14,1.8,North,3.5,-,N/A,,Clear,360,2012-12-09 10:51:00
5:56 AM,45.0,44.1,97,30.14,2.5,North,3.5,-,N/A,,Clear,350,2012-12-09 10:56:00
6:05 AM,44.6,44.6,100,30.15,4.0,North,4.6,-,N/A,,Clear,350,2012-12-09 11:05:00
6:56 AM,46.0,44.1,93,30.17,7.0,North,4.6,-,N/A,,Clear,10,2012-12-09 11:56:00
7:56 AM,46.0,43.0,89,30.21,10.0,North,6.9,-,N/A,,Mostly Cloudy,360,2012-12-09 12:56:00
8:56 AM,46.0,39.9,79,30.23,10.0,North,9.2,16.1,N/A,,Overcast,10,2012-12-09 13:56:00
9:56 AM,46.0,37.9,73,30.25,10.0,North,10.4,-,N/A,,Mostly Cloudy,360,2012-12-09 14:56:00
10:56 AM,46.0,37.9,73,30.23,10.0,North,5.8,-,N/A,,Overcast,10,2012-12-09 15:56:00
11:56 AM,46.0,39.0,76,30.24,10.0,North,5.8,-,0.01,Rain,Light Rain,350,2012-12-09 16:56:00
12:56 PM,46.0,39.0,76,30.22,10.0,Variable,3.5,-,0.00,Rain,Light Rain,0,2012-12-09 17:56:00
1:56 PM,45.0,39.0,80,30.22,10.0,NNE,3.5,-,0.00,Rain,Light Rain,20,2012-12-09 18:56:00
2:56 PM,45.0,39.9,82,30.22,10.0,Calm,Calm,-,0.01,Rain,Light Rain,0,2012-12-09 19:56:00
3:56 PM,44.1,41.0,89,30.22,7.0,NNE,3.5,-,0.03,Rain,Light Rain,20,2012-12-09 20:56:00
4:56 PM,44.1,42.1,93,30.22,10.0,Calm,Calm,-,0.02,Rain,Light Rain,0,2012-12-09 21:56:00
5:56 PM,45.0,42.1,90,30.22,9.0,Calm,Calm,-,0.02,Rain,Light Rain,0,2012-12-09 22:56:00
6:07 PM,44.6,42.8,93,30.22,9.0,Calm,Calm,-,0.00,Rain,Light Rain,0,2012-12-09 23:07:00
6:56 PM,45.0,42.1,90,30.22,5.0,Variable,5.8,-,0.02,Rain,Light Rain,0,2012-12-09 23:56:00
7:11 PM,44.6,42.8,93,30.21,5.0,Variable,4.6,-,0.01,Rain,Light Rain,0,2012-12-10 00:11:00
7:29 PM,44.6,41.0,87,30.20,10.0,Variable,5.8,-,0.01,,Overcast,0,2012-12-10 00:29:00
7:56 PM,44.1,41.0,89,30.19,8.0,Variable,4.6,-,0.01,Rain,Light Rain,0,2012-12-10 00:56:00
8:18 PM,42.8,41.0,93,30.18,5.0,Variable,4.6,-,0.00,Rain,Light Rain,0,2012-12-10 01:18:00
8:32 PM,42.8,41.0,93,30.18,4.0,Variable,4.6,-,0.01,Rain,Light Rain,0,2012-12-10 01:32:00
8:56 PM,44.1,42.1,93,30.16,5.0,Variable,4.6,-,0.01,,Overcast,0,2012-12-10 01:56:00
9:56 PM,46.0,44.1,93,30.11,6.0,Variable,6.9,-,0.03,Rain,Light Rain,0,2012-12-10 02:56:00
10:56 PM,48.9,46.9,93,30.06,7.0,Variable,5.8,-,0.01,Rain,Light Rain,0,2012-12-10 03:56:00
11:56 PM,51.1,48.9,92,30.02,7.0,ESE,8.1,-,0.04,Rain,Light Rain,120,2012-12-10 04:56:00